Temp
80 83 87 84 87 87 87 86 81 79 79 77 76 75 74 75 70 72 71 69 70 74
79 81 86 83 84 87 85 83 80 77 75 75 74 73 73 73 70 70 70 68 68 70
81 79 83 84 83 84 82 79 74 74 73 73 72 71 69 66 65 68 69 67 63 65
76 79 84 82 85 81 76 72 71 73 71 70 68 66 64 63 64 65 64 64 62 62
78 77 75 73 74 70 70 69 69 68 66 66 61 63 61 61 60 59 58 59 60 59
66 65 64 64 64 65 66 65 64 65 60 58 57 55 56 57 57 57 58 60 58 57
63 62 62 62 64 63 64 62 59 57 54 53 52 53 54 55 55 57 57 57 55 55
60 60 59 59 58 57 58 56 54 53 52 50 50 52 53 53 54 55 56 56 57 56
58 58 56 53 53 53 53 53 52 51 50 49 50 49 52 55 56 57 57 56 59 59
55 54 54 53 52 52 51 51 50 49 51 50 48 47 49 52 57 56 55 55 56 59
52 51 52 52 50 50 50 49 47 48 49 48 50 47 48 51 55 55 54 55 56 55
51 50 51 50 49 50 48 48 47 50 51 50 49 47 48 53 57 56 54 52 50 54
51 50 50 50 50 50 51 51 54 50 50 49 50 43 44 53 60 57 57 55 51 42
49 48 48 49 49 49 49 51 49 50 52 52 52 47 43 44 61 61 61 60 57 53
MSLP
1000.17 1000.61 1000.76 1001.45 1001.91 1002.74 1003.22 1004.19 1005.75 1006.97 1007.99 1008.90 1009.49 1010.11 1010.61 1011.33 1011.97 1012.66 1012.82 1013.52 1013.79 1012.92
999.82 999.97 1000.25 1000.97 1001.87 1002.43 1003.13 1004.37 1006.07 1007.22 1008.57 1009.45 1010.16 1010.89 1011.17 1011.76 1012.56 1013.37 1013.37 1014.39 1014.43 1013.80
999.26 999.84 1000.18 1000.81 1001.73 1002.34 1003.23 1004.72 1006.59 1007.82 1009.13 1009.80 1010.55 1011.55 1012.20 1012.73 1013.27 1013.90 1014.21 1015.14 1015.05 1015.13
999.29 999.59 1000.14 1001.24 1002.02 1003.03 1004.50 1005.34 1007.54 1008.72 1009.55 1010.50 1011.21 1012.33 1012.87 1013.60 1013.84 1014.24 1015.16 1015.63 1016.07 1015.78
999.55 1000.33 1000.89 1002.55 1003.31 1004.44 1005.51 1006.86 1008.25 1009.47 1010.72 1011.65 1012.36 1012.87 1013.73 1014.51 1014.86 1015.31 1015.75 1015.22 1016.58 1016.35
1000.63 1001.56 1002.19 1004.24 1004.56 1005.65 1006.71 1008.26 1009.27 1010.27 1011.48 1012.73 1013.40 1014.39 1014.67 1015.31 1015.68 1016.11 1016.47 1016.04 1017.65 1017.37
1001.37 1002.16 1003.75 1004.85 1005.75 1006.64 1007.75 1008.95 1010.57 1011.42 1012.20 1013.43 1014.09 1015.50 1015.67 1016.04 1016.81 1016.53 1016.93 1017.95 1018.32 1018.67
1002.71 1003.91 1004.97 1005.52 1006.32 1007.89 1009.15 1010.36 1011.33 1011.72 1013.53 1014.52 1015.28 1015.69 1016.71 1016.71 1017.31 1016.73 1017.67 1018.47 1018.83 1019.16
1003.29 1005.20 1005.36 1006.15 1007.51 1009.37 1010.45 1011.12 1011.83 1013.12 1014.11 1014.56 1016.06 1016.42 1017.23 1017.12 1016.87 1017.40 1018.17 1018.59 1018.69 1019.01
1004.86 1005.61 1006.83 1007.38 1008.37 1009.95 1010.99 1011.56 1012.59 1013.78 1014.60 1015.35 1016.76 1017.30 1016.80 1017.48 1017.37 1018.07 1018.72 1019.05 1019.35 1019.04
1005.01 1006.34 1007.86 1007.88 1008.64 1010.33 1011.76 1012.27 1013.41 1014.29 1015.38 1015.57 1016.29 1017.01 1017.25 1017.72 1018.23 1018.90 1019.49 1019.83 1019.87 1019.89
1005.63 1007.41 1008.22 1008.98 1009.87 1011.26 1012.07 1013.05 1014.03 1015.18 1016.03 1016.59 1017.52 1017.53 1017.51 1018.08 1018.49 1019.23 1019.89 1020.35 1020.71 1020.89
1006.66 1007.23 1009.32 1010.30 1010.87 1011.91 1012.47 1013.31 1014.11 1015.97 1017.13 1017.56 1018.00 1018.67 1018.46 1018.10 1018.57 1019.08 1019.35 1019.98 1021.28 1021.88
1008.18 1009.05 1010.47 1010.84 1011.64 1012.37 1013.25 1014.26 1015.72 1016.63 1017.35 1017.83 1018.67 1019.17 1018.81 1018.44 1018.57 1018.72 1018.79 1019.57 1020.56 1021.50
Wind_Speed
17 13 13 14 13 13 13 12 16 11 11 13 13 12 12 10 6 9 8 8 6 5
16 16 15 17 12 12 12 12 15 13 13 14 13 13 12 10 11 8 8 7 5 6
17 16 13 14 14 13 12 17 14 15 15 15 14 14 12 9 8 9 8 6 7 6
13 12 13 11 11 14 16 18 15 15 16 16 16 13 13 11 9 13 10 8 6 7
14 12 12 10 14 17 16 16 15 15 16 16 14 13 13 12 10 10 6 11 8 8
13 14 18 15 17 18 19 18 17 17 16 15 14 11 12 11 11 10 8 10 6 9
15 16 16 16 16 18 19 20 17 15 16 15 15 11 10 10 9 10 11 9 9 7
15 14 16 16 18 16 16 15 15 18 15 14 12 10 9 10 8 11 9 7 6 8
18 15 16 17 20 17 17 18 19 18 15 16 9 13 10 7 9 10 6 7 4 6
17 17 16 19 20 19 18 18 18 16 18 17 11 11 14 9 9 9 7 5 6 6
18 17 15 18 19 18 16 17 16 15 14 14 11 12 14 14 10 8 9 8 7 8
19 17 16 17 19 18 18 17 16 15 16 15 11 10 13 9 10 10 10 11 11 8
17 20 16 16 18 16 16 18 15 15 11 13 10 9 7 2 8 9 7 10 9 11
16 18 16 17 16 17 17 17 15 14 12 13 10 10 12 13 8 6 6 6 7 6
Wind_Direction
194 197 193 187 171 178 171 166 151 151 146 135 135 126 118 120 105 102 86 70 26 60
186 199 193 175 190 178 163 130 140 137 135 133 126 125 117 102 102 102 90 74 40 48
185 193 189 169 178 161 141 130 126 125 130 126 113 99 98 100 88 83 73 67 52 16
182 179 156 162 169 125 115 113 122 127 123 119 114 108 99 87 97 93 82 65 45 53
165 115 107 99 111 111 115 110 120 111 112 111 106 105 101 103 87 86 79 66 39 41
126 121 102 111 108 109 111 111 113 119 112 102 92 93 93 84 89 82 62 71 46 39
128 111 115 118 116 117 120 120 118 112 104 99 100 90 95 95 92 91 74 63 55 41
108 116 127 122 110 110 115 110 106 104 95 97 97 100 102 100 112 96 92 84 98 60
119 132 113 107 109 109 111 106 101 99 105 97 98 101 121 107 98 106 104 80 71 91
122 119 127 118 117 118 112 110 108 106 108 107 105 112 102 116 89 83 84 69 35 33
110 111 119 121 112 113 117 110 112 113 122 120 114 106 95 94 106 98 75 63 53 45
114 122 118 116 119 119 114 112 104 108 108 106 110 109 122 133 118 114 108 74 45 40
112 110 116 121 118 118 114 112 110 108 110 105 110 49 39 109 128 130 113 129 106 64
104 108 115 110 107 107 106 106 113 113 111 104 97 55 42 26 129 130 112 98 77 57